EW6800 Weather Reports


time (UTC)temp
C
wind
direction
speed
KPH
gust
KPH
rain 1hr
cm
rain 24hr
cm
rain mn
cm
humidity
%
barometer
mb
20260902140544 12 137 1.6 4.8 0.00 0.00 0.00 84 1017.5
20260902140059 12 137 0.0 3.2 0.00 0.00 0.00 84 1017.5
20260902135544 12 0 0.0 3.2 0.00 0.00 0.00 84 1017.5
20260902135041 12 0 0.0 3.2 0.00 0.00 0.00 84 1017.4
20260902134557 12 0 0.0 3.2 0.00 0.00 0.00 84 1017.3
20260902134043 12 0 0.0 4.8 0.00 0.00 0.00 83 1017.2
20260902133543 12 137 1.6 4.8 0.00 0.00 0.00 83 1017.2
20260902133054 12 137 1.6 6.4 0.00 0.00 0.00 83 1017.3
20260902132545 12 0 3.2 6.4 0.00 0.00 0.00 83 1017.2
20260902132044 12 136 0.0 4.8 0.00 0.00 0.00 83 1017.3
20260902131554 12 136 3.2 4.8 0.00 0.00 0.00 83 1017.4
20260902131044 12 137 0.0 3.2 0.00 0.00 0.00 83 1017.4
20260902130543 12 0 0.0 4.8 0.00 0.00 0.00 83 1017.3
20260902130104 12 137 1.6 4.8 0.00 0.00 0.00 82 1017.3
20260902125543 12 136 1.6 4.8 0.00 0.00 0.00 82 1017.4
20260902125044 13 137 1.6 4.8 0.00 0.00 0.00 82 1017.3
20260902124557 12 137 1.6 4.8 0.00 0.00 0.00 82 1017.2
20260902124043 13 137 0.0 8.0 0.00 0.00 0.00 82 1017.2
20260902123546 12 138 1.6 9.7 0.00 0.00 0.00 82 1017.2
20260902123054 12 111 4.8 9.7 0.00 0.00 0.00 82 1017.4
20260902122544 12 0 0.0 6.4 0.00 0.00 0.00 82 1017.3
20260902122040 12 131 0.0 9.7 0.00 0.00 0.00 82 1017.2
20260902121550 12 131 4.8 9.7 0.00 0.00 0.00 82 1017.1
20260902121044 12 171 1.6 6.4 0.00 0.00 0.00 84 1017.1
20260902120544 12 0 0.0 6.4 0.00 0.00 0.00 85 1017.1
20260902115543 12 163 1.6 8.0 0.00 0.00 0.00 87 1017.0
20260902115043 12 136 3.2 8.0 0.00 0.00 0.00 88 1017.1
20260902114554 12 145 0.0 4.8 0.00 0.00 0.00 89 1017.2
20260902114044 12 0 0.0 0.0 0.00 0.00 0.00 89 1017.2
20260902113543 12 0 0.0 0.0 0.00 0.00 0.00 89 1017.1
20260902113055 12 0 0.0 0.0 0.00 0.00 0.00 89 1017.3
20260902112545 12 0 0.0 0.0 0.00 0.00 0.00 89 1017.4
20260902112044 12 0 0.0 0.0 0.00 0.00 0.00 89 1017.4
20260902111550 12 0 0.0 1.6 0.00 0.00 0.00 89 1017.4
20260902111044 12 0 0.0 4.8 0.00 0.00 0.00 90 1017.4
20260902110545 12 0 0.0 4.8 0.00 0.00 0.00 90 1017.3
20260902105546 12 134 1.6 6.4 0.00 0.00 0.00 90 1017.4
20260902105044 12 134 1.6 6.4 0.00 0.00 0.00 89 1017.3
20260902104554 12 0 0.0 0.0 0.00 0.00 0.00 90 1017.3
20260902104044 12 0 0.0 3.2 0.00 0.00 0.00 89 1017.3
20260902103543 12 0 0.0 3.2 0.00 0.00 0.00 89 1017.4
20260902103053 12 135 0.0 1.6 0.00 0.00 0.00 89 1017.3
20260902102543 12 323 0.0 3.2 0.00 0.00 0.00 90 1017.2
20260902102044 12 0 0.0 3.2 0.00 0.00 0.00 90 1017.2
20260902101550 12 0 0.0 3.2 0.00 0.00 0.00 90 1017.3
20260902101044 12 323 0.0 1.6 0.00 0.00 0.00 90 1017.3
20260902100544 12 0 0.0 1.6 0.00 0.00 0.00 90 1017.2
20260902100229 12 0 0.0 1.6 0.00 0.00 0.00 89 1017.2
20260902095543 12 0 0.0 1.6 0.00 0.00 0.00 89 1017.2
20260902095043 12 0 0.0 3.2 0.00 0.00 0.00 89 1017.3
20260902094615 12 0 0.0 3.2 0.00 0.00 0.00 89 1017.3
20260902094044 12 0 1.6 3.2 0.00 0.00 0.00 89 1017.4
20260902093544 12 0 0.0 3.2 0.00 0.00 0.00 88 1017.5
20260902093053 12 0 0.0 1.6 0.00 0.00 0.00 88 1017.4
20260902092543 12 0 0.0 4.8 0.00 0.00 0.00 88 1017.3
20260902092047 12 0 0.0 4.8 0.00 0.00 0.00 88 1017.4
20260902091603 12 323 0.0 6.4 0.00 0.00 0.00 88 1017.3
20260902091044 12 323 1.6 6.4 0.00 0.00 0.00 88 1017.4
20260902090544 12 323 1.6 4.8 0.00 0.00 0.00 88 1017.5
20260902090058 12 323 1.6 4.8 0.00 0.00 0.00 88 1017.4
20260902085545 12 323 1.6 4.8 0.00 0.00 0.00 88 1017.5
20260902085043 12 323 1.6 4.8 0.00 0.00 0.00 88 1017.5
20260902084556 12 321 1.6 6.4 0.00 0.00 0.00 88 1017.5
20260902084045 12 321 1.6 8.0 0.00 0.00 0.00 88 1017.6
20260902083544 12 0 3.2 8.0 0.00 0.00 0.00 87 1017.6
20260902083056 12 314 3.2 6.4 0.00 0.00 0.00 87 1017.5
20260902082546 12 314 3.2 6.4 0.00 0.00 0.00 87 1017.5
20260902082044 12 325 1.6 6.4 0.00 0.00 0.00 87 1017.5
20260902081601 12 325 1.6 8.0 0.00 0.00 0.00 86 1017.5
20260902081044 12 317 1.6 8.0 0.00 0.00 0.00 86 1017.6
20260902080544 12 317 3.2 8.0 0.00 0.00 0.00 85 1017.6
20260902080113 12 313 3.2 8.0 0.00 0.00 0.00 85 1017.6
20260902075547 12 310 3.2 6.4 0.00 0.00 0.00 85 1017.6
20260902075043 12 310 3.2 6.4 0.00 0.00 0.00 84 1017.6
20260902074557 12 0 1.6 6.4 0.00 0.00 0.00 84 1017.6
20260902074045 12 310 4.8 6.4 0.00 0.00 0.00 83 1017.6
20260902073544 12 310 3.2 6.4 0.00 0.00 0.00 83 1017.7
20260902073104 12 309 3.2 8.0 0.00 0.00 0.00 83 1017.7
20260902072545 12 309 3.2 8.0 0.00 0.00 0.00 82 1017.6
20260902072047 12 309 3.2 8.0 0.00 0.00 0.00 82 1017.6
20260902071603 12 0 1.6 4.8 0.00 0.00 0.00 82 1017.7
20260902071044 12 309 1.6 4.8 0.00 0.00 0.00 82 1017.6
20260902070543 12 0 1.6 4.8 0.00 0.00 0.00 82 1017.6
20260902070106 12 309 1.6 4.8 0.00 0.00 0.00 82 1017.7
20260902065544 12 309 0.0 3.2 0.00 0.00 0.00 81 1017.6
20260902065044 12 0 0.0 3.2 0.00 0.00 0.00 81 1017.5
20260902064610 12 0 0.0 3.2 0.00 0.00 0.00 80 1017.5
20260902064045 12 0 0.0 0.0 0.00 0.00 0.00 80 1017.5
20260902063543 12 0 0.0 0.0 0.00 0.00 0.00 80 1017.5
20260902063106 12 0 0.0 1.6 0.00 0.00 0.00 79 1017.4
20260902062544 13 0 0.0 1.6 0.00 0.00 0.00 79 1017.4
20260902062044 12 0 0.0 1.6 0.00 0.00 0.00 79 1017.4
20260902061559 13 0 0.0 0.0 0.00 0.00 0.00 80 1017.3
20260902061045 13 0 0.0 0.0 0.00 0.00 0.00 80 1017.3
20260902060544 13 0 0.0 3.2 0.00 0.00 0.00 80 1017.3
20260902060115 13 0 0.0 3.2 0.00 0.00 0.00 80 1017.3
20260902055544 12 309 1.6 4.8 0.00 0.00 0.00 80 1017.3
20260902055044 12 309 1.6 4.8 0.00 0.00 0.00 80 1017.3
20260902054557 12 309 1.6 3.2 0.00 0.00 0.00 80 1017.5
20260902054044 12 309 1.6 3.2 0.00 0.00 0.00 80 1017.6
20260902053543 12 309 1.6 3.2 0.00 0.00 0.00 81 1017.6
20260902053059 12 309 1.6 3.2 0.00 0.00 0.00 81 1017.7
20260902052546 12 0 0.0 0.0 0.00 0.00 0.00 82 1017.7
20260902052044 12 0 0.0 0.0 0.00 0.00 0.00 82 1017.9
20260902051606 12 0 0.0 0.0 0.00 0.00 0.00 82 1017.8
20260902051043 12 0 0.0 0.0 0.00 0.00 0.00 82 1017.9
20260902050545 12 0 0.0 1.6 0.00 0.00 0.00 82 1017.9
20260902050104 12 0 0.0 3.2 0.00 0.00 0.00 82 1017.8
20260902045543 12 0 0.0 3.2 0.00 0.00 0.00 82 1017.9
20260902045043 12 309 0.0 4.8 0.00 0.00 0.00 83 1017.8
20260902044617 12 0 0.0 4.8 0.00 0.00 0.00 83 1017.9
20260902044044 12 309 3.2 4.8 0.00 0.00 0.00 83 1017.8
20260902043544 12 309 3.2 4.8 0.00 0.00 0.00 83 1017.8
20260902043104 12 309 1.6 6.4 0.00 0.00 0.00 83 1017.8
20260902042546 12 309 0.0 6.4 0.00 0.00 0.00 83 1017.8
20260902042044 12 308 3.2 4.8 0.00 0.00 0.00 83 1017.9
20260902041602 12 0 0.0 4.8 0.00 0.00 0.00 83 1017.8
20260902041045 12 308 0.0 4.8 0.00 0.00 0.00 83 1017.7
20260902040545 12 0 1.6 8.0 0.00 0.00 0.00 83 1017.7
20260902035544 12 308 4.8 8.0 0.00 0.00 0.00 84 1017.6
20260902035044 12 309 1.6 6.4 0.00 0.00 0.00 84 1017.5
20260902034601 12 309 1.6 4.8 0.00 0.00 0.00 83 1017.5
20260902034044 12 309 1.6 4.8 0.00 0.00 0.00 83 1017.5
20260902033548 12 0 0.0 4.8 0.00 0.00 0.00 83 1017.5
20260902033110 12 309 1.6 4.8 0.00 0.00 0.00 82 1017.4
20260902032546 12 0 0.0 6.4 0.00 0.00 0.00 81 1017.3
20260902032045 12 0 0.0 6.4 0.00 0.00 0.00 81 1017.3
20260902031558 12 309 3.2 6.4 0.00 0.00 0.00 80 1017.4
20260902031044 12 309 3.2 6.4 0.00 0.00 0.00 79 1017.3
20260902030547 12 307 3.2 6.4 0.00 0.00 0.00 79 1017.2
20260902030058 12 307 3.2 6.4 0.00 0.00 0.00 78 1017.2
20260902025545 12 307 3.2 6.4 0.00 0.00 0.00 78 1017.2
20260902025045 13 307 3.2 6.4 0.00 0.00 0.00 78 1017.1
20260902024607 13 307 3.2 8.0 0.00 0.00 0.00 77 1017.1
20260902024045 13 307 3.2 8.0 0.00 0.00 0.00 77 1017.0
20260902023544 13 308 3.2 8.0 0.00 0.00 0.00 76 1017.1
20260902023052 13 301 4.8 8.0 0.00 0.00 0.00 75 1017.0
20260902022545 13 297 3.2 8.0 0.00 0.00 0.00 75 1016.9
20260902022045 13 302 3.2 6.4 0.00 0.00 0.00 75 1016.9
20260902021615 14 299 1.6 6.4 0.00 0.00 0.00 74 1016.9
20260902021045 14 299 1.6 6.4 0.00 0.00 0.00 74 1016.9
20260902020548 14 298 1.6 4.8 0.00 0.00 0.00 73 1016.8
20260902015546 14 0 0.0 6.4 0.00 0.00 0.00 72 1016.8
20260902015044 14 298 1.6 6.4 0.00 0.00 0.00 72 1016.8
20260902014551 15 294 1.6 6.4 0.00 0.00 0.00 71 1016.8
20260902014045 15 296 1.6 6.4 0.00 0.00 0.00 71 1016.7
20260902013544 15 295 1.6 6.4 0.00 0.00 0.00 71 1016.8
20260902013104 15 282 1.6 8.0 0.00 0.00 0.00 70 1016.7
20260902012544 15 279 1.6 8.0 0.00 0.00 0.00 69 1016.8
20260902012044 15 294 3.2 8.0 0.00 0.00 0.00 68 1016.8
20260902011559 15 319 3.2 8.0 0.00 0.00 0.00 68 1016.8
20260902011045 15 315 3.2 6.4 0.00 0.00 0.00 68 1016.8
20260902010543 15 0 3.2 9.7 0.00 0.00 0.00 67 1016.6
20260902010059 15 327 3.2 12.9 0.00 0.00 0.00 67 1016.6
20260902005544 15 305 1.6 12.9 0.00 0.00 0.00 67 1016.5
20260902005044 15 304 6.4 12.9 0.00 0.00 0.00 66 1016.6
20260902004558 15 338 6.4 12.9 0.00 0.00 0.00 65 1016.6
20260902004045 16 300 6.4 12.9 0.00 0.00 0.00 65 1016.6
20260902003543 16 306 1.6 11.3 0.00 0.00 0.00 66 1016.6
20260902003055 16 300 1.6 6.4 0.00 0.00 0.00 66 1016.5
20260902002542 16 314 3.2 6.4 0.00 0.00 0.00 66 1016.6
20260902002042 16 290 3.2 8.0 0.00 0.00 0.00 66 1016.6
20260902001558 16 308 1.6 11.3 0.00 0.00 0.00 65 1016.6
20260902001044 16 302 3.2 14.5 0.00 0.00 0.00 65 1016.5
20260902000543 16 298 6.4 14.5 0.00 0.00 0.00 64 1016.5
20260902000058 16 249 3.2 14.5 0.00 0.00 0.00 65 1016.5
20260901235543 16 305 6.4 14.5 0.00 0.00 0.00 63 1016.5
20260901235043 16 284 3.2 11.3 0.00 0.00 0.00 63 1016.4
20260901234558 16 300 3.2 12.9 0.00 0.00 0.00 63 1016.5
20260901234043 17 301 3.2 12.9 0.00 0.00 0.00 62 1016.6
20260901233543 17 301 4.8 12.9 0.00 0.00 0.00 62 1016.5
20260901233052 17 291 4.8 12.9 0.00 0.00 0.00 60 1016.6
20260901232543 17 300 3.2 8.0 0.00 0.00 0.00 60 1016.5
20260901232046 17 290 1.6 8.0 0.00 0.00 0.00 59 1016.5
20260901231559 17 296 3.2 12.9 0.00 0.00 0.00 60 1016.6
20260901231042 17 290 3.2 12.9 0.00 0.00 0.00 60 1016.6
20260901230544 17 295 4.8 11.3 0.00 0.00 0.00 58 1016.5
20260901230058 17 298 4.8 14.5 0.00 0.00 0.00 59 1016.5
20260901225547 18 325 3.2 14.5 0.00 0.00 0.00 58 1016.6
20260901225043 18 294 4.8 14.5 0.00 0.00 0.00 58 1016.6
20260901224559 18 284 3.2 8.0 0.00 0.00 0.00 58 1016.6
20260901224046 18 291 3.2 9.7 0.00 0.00 0.00 60 1016.6
20260901223543 18 325 3.2 9.7 0.00 0.00 0.00 59 1016.6
20260901223100 18 350 3.2 14.5 0.00 0.00 0.00 59 1016.6
20260901222544 18 290 1.6 14.5 0.00 0.00 0.00 59 1016.8
20260901222043 18 286 3.2 14.5 0.00 0.00 0.00 58 1016.8
20260901221549 17 322 3.2 11.3 0.00 0.00 0.00 59 1016.8
20260901221044 17 269 3.2 11.3 0.00 0.00 0.00 58 1016.9
20260901220544 17 283 3.2 9.7 0.00 0.00 0.00 58 1016.9
20260901220104 17 317 3.2 11.3 0.00 0.00 0.00 58 1017.0
20260901215544 17 284 3.2 11.3 0.00 0.00 0.00 59 1017.0
20260901215044 17 297 3.2 14.5 0.00 0.00 0.00 59 1017.0
20260901214554 17 299 3.2 14.5 0.00 0.00 0.00 58 1017.0
20260901214043 18 325 3.2 14.5 0.00 0.00 0.00 57 1017.1
20260901213546 18 287 1.6 8.0 0.00 0.00 0.00 59 1017.0
20260901213052 17 327 1.6 11.3 0.00 0.00 0.00 60 1017.1
20260901212544 17 292 4.8 11.3 0.00 0.00 0.00 59 1017.1
20260901212043 17 297 3.2 8.0 0.00 0.00 0.00 62 1017.2
20260901211559 17 309 1.6 8.0 0.00 0.00 0.00 62 1017.2
20260901211042 17 304 3.2 8.0 0.00 0.00 0.00 62 1017.2
20260901210544 17 294 4.8 8.0 0.00 0.00 0.00 61 1017.2
20260901210057 17 191 3.2 8.0 0.00 0.00 0.00 62 1017.1
20260901205543 17 259 3.2 6.4 0.00 0.00 0.00 63 1017.1
20260901205044 17 102 1.6 12.9 0.00 0.00 0.00 62 1017.1
20260901204556 17 292 1.6 12.9 0.00 0.00 0.00 64 1017.1
20260901204047 17 249 3.2 8.0 0.00 0.00 0.00 63 1017.1
20260901203543 17 234 3.2 14.5 0.00 0.00 0.00 65 1017.3
20260901203052 16 320 3.2 14.5 0.00 0.00 0.00 64 1017.3
20260901202545 16 338 3.2 12.9 0.00 0.00 0.00 65 1017.2
20260901202043 16 257 3.2 8.0 0.00 0.00 0.00 65 1017.3
20260901201600 16 311 3.2 8.0 0.00 0.00 0.00 67 1017.4
20260901201043 16 225 1.6 9.7 0.00 0.00 0.00 69 1017.6
20260901200543 15 280 3.2 9.7 0.00 0.00 0.00 71 1017.6
20260901200108 15 229 3.2 6.4 0.00 0.00 0.00 71 1017.6
20260901195544 15 252 0.0 8.0 0.00 0.00 0.00 72 1017.6
20260901195045 15 322 3.2 8.0 0.00 0.00 0.00 72 1017.7
20260901194603 15 337 1.6 12.9 0.00 0.00 0.00 71 1017.6
20260901194043 15 317 3.2 12.9 0.00 0.00 0.00 70 1017.6
20260901193543 15 307 4.8 11.3 0.00 0.00 0.00 70 1017.6
20260901193101 15 292 1.6 8.0 0.00 0.00 0.00 68 1017.6
20260901192543 15 285 1.6 8.0 0.00 0.00 0.00 68 1017.6
20260901192043 15 269 1.6 6.4 0.00 0.00 0.00 69 1017.5
20260901191606 15 320 1.6 6.4 0.00 0.00 0.00 69 1017.5
20260901191044 15 226 1.6 6.4 0.00 0.00 0.00 71 1017.6
20260901190543 15 327 1.6 8.0 0.00 0.00 0.00 72 1017.5
20260901190104 14 0 1.6 8.0 0.00 0.00 0.00 73 1017.6
20260901185544 14 302 3.2 8.0 0.00 0.00 0.00 73 1017.6
20260901185043 15 301 3.2 8.0 0.00 0.00 0.00 72 1017.6
20260901184601 15 327 3.2 6.4 0.00 0.00 0.00 72 1017.6
20260901184043 15 317 1.6 6.4 0.00 0.00 0.00 72 1017.6
20260901183543 15 318 0.0 6.4 0.00 0.00 0.00 71 1017.5
20260901183101 15 0 0.0 4.8 0.00 0.00 0.00 70 1017.5
20260901182545 15 0 0.0 4.8 0.00 0.00 0.00 69 1017.5
20260901182045 15 0 0.0 4.8 0.00 0.00 0.00 69 1017.5
20260901181602 15 0 0.0 1.6 0.00 0.00 0.00 70 1017.5
20260901181042 14 0 0.0 1.6 0.00 0.00 0.00 69 1017.5
20260901180543 15 0 0.0 3.2 0.00 0.00 0.00 70 1017.5
20260901180124 14 0 0.0 3.2 0.00 0.00 0.00 70 1017.6
20260901175548 14 0 0.0 3.2 0.00 0.00 0.00 70 1017.4
20260901175045 14 0 0.0 3.2 0.00 0.00 0.00 69 1017.4
20260901174603 14 0 0.0 1.6 0.00 0.00 0.00 72 1017.4
20260901174043 13 0 0.0 4.8 0.00 0.00 0.00 71 1017.3
20260901173546 13 0 0.0 4.8 0.00 0.00 0.00 73 1017.3
20260901173109 13 300 1.6 4.8 0.00 0.00 0.00 74 1017.3
20260901172546 13 0 0.0 0.0 0.00 0.00 0.00 75 1017.2
20260901172045 13 0 0.0 4.8 0.00 0.00 0.00 74 1017.1
20260901171612 13 0 0.0 4.8 0.00 0.00 0.00 74 1017.2
20260901171043 13 300 0.0 6.4 0.00 0.00 0.00 74 1017.0
20260901170543 13 301 1.6 6.4 0.00 0.00 0.00 74 1017.1
20260901170100 13 301 1.6 4.8 0.00 0.00 0.00 74 1016.9
20260901165543 12 269 1.6 6.4 0.00 0.00 0.00 75 1017.0
20260901165043 12 0 1.6 6.4 0.00 0.00 0.00 74 1016.8
20260901164600 12 0 1.6 4.8 0.00 0.00 0.00 76 1016.7
20260901164043 12 310 1.6 4.8 0.00 0.00 0.00 76 1016.7
20260901163543 12 310 0.0 4.8 0.00 0.00 0.00 76 1016.8
20260901163053 12 311 1.6 8.0 0.00 0.00 0.00 77 1016.7
20260901162547 12 302 3.2 8.0 0.00 0.00 0.00 76 1016.8
20260901162046 12 0 0.0 4.8 0.00 0.00 0.00 79 1016.7
20260901161551 12 0 1.6 4.8 0.00 0.00 0.00 78 1016.6
20260901161043 12 0 0.0 4.8 0.00 0.00 0.00 79 1016.6
20260901160543 12 315 1.6 4.8 0.00 0.00 0.00 78 1016.8
20260901160104 12 0 0.0 4.8 0.00 0.00 0.00 80 1016.8
20260901155545 12 0 0.0 3.2 0.00 0.00 0.00 80 1016.9
20260901155047 12 219 0.0 3.2 0.00 0.00 0.00 80 1016.7
20260901154558 12 0 0.0 0.0 0.00 0.00 0.00 80 1016.5
20260901154043 11 0 0.0 4.8 0.00 0.00 0.00 80 1016.5
20260901153545 11 0 0.0 4.8 0.00 0.00 0.00 80 1016.5
20260901153054 11 206 0.0 1.6 0.00 0.00 0.00 81 1016.3
20260901152544 11 0 0.0 1.6 0.00 0.00 0.00 82 1016.3
20260901152043 11 0 0.0 1.6 0.00 0.00 0.00 82 1016.3
20260901151609 11 0 0.0 0.0 0.00 0.00 0.00 81 1016.3
20260901151045 11 0 0.0 0.0 0.00 0.00 0.00 82 1016.3
20260901150544 11 0 0.0 0.0 0.00 0.00 0.00 82 1016.2
20260901150056 11 0 0.0 1.6 0.00 0.00 0.00 82 1016.2
20260901145545 11 0 0.0 1.6 0.00 0.00 0.00 82 1016.3
20260901145043 11 0 0.0 0.0 0.00 0.00 0.00 81 1016.2
20260901144559 11 0 0.0 0.0 0.00 0.00 0.00 82 1016.0
20260901144046 11 0 0.0 0.0 0.00 0.00 0.00 83 1015.9
20260901143543 11 0 0.0 0.0 0.00 0.00 0.00 83 1016.0
20260901143108 11 0 0.0 3.2 0.00 0.00 0.00 83 1016.0
20260901142544 11 0 0.0 3.2 0.00 0.00 0.00 83 1015.8
20260901142044 11 0 0.0 1.6 0.00 0.00 0.00 83 1015.7
20260901141559 11 0 0.0 1.6 0.00 0.00 0.00 83 1015.8
20260901141044 11 0 0.0 3.2 0.00 0.00 0.00 83 1015.7